Simultaneous Nadir Overpasses (SNOs) Predictions

Prediction of SNOs between METOP-A and TERRA Satellite Orbit:

Table of predicted SNOs for the next 14.0 days since TLE Epoch: 7/21/2013
Index Date (METOP-A) Time (METOP-A) Lat,Lon (METOP-A) SZA (METOP-A ) Date (TERRA) Time (TERRA) Lat,Lon (TERRA) SZA (TERRA ) Distance(km) Time Diff (sec)
1 07/22/2013 04:42:16 -81.30, -23.47 116.24 07/22/2013 04:43:21 -81.30, -23.64 116.22 2.85 65
2 07/22/2013 05:32:57 81.30, 143.64 63.75 07/22/2013 05:32:48 81.29, 143.79 63.76 2.61 9
3 07/25/2013 00:16:40 -81.29, 42.57 115.70 07/25/2013 00:17:46 -81.30, 42.73 115.65 2.83 66
4 07/25/2013 01:07:20 81.30,-149.95 64.33 07/25/2013 01:07:13 81.29,-149.83 64.33 2.03 7
5 07/27/2013 19:51:14 -81.22, 105.10 115.55 07/27/2013 19:52:28 -81.08, 105.44 115.58 16.46 74
6 07/27/2013 20:41:44 81.30, -83.57 64.95 07/27/2013 20:41:45 81.29, -83.43 64.96 2.35 1
7 07/27/2013 21:32:24 -81.30, 84.27 114.99 07/27/2013 21:31:12 -81.29, 84.24 115.03 0.92 72
8 07/30/2013 16:16:07 81.30, -16.82 65.66 07/30/2013 16:16:23 81.30, -17.00 65.64 2.92 16
9 07/30/2013 17:06:48 -81.30, 150.64 114.32 07/30/2013 17:05:50 -81.30, 150.73 114.34 1.50 58
10 08/02/2013 11:50:30 81.30, 49.49 66.36 08/02/2013 11:51:06 81.31, 49.46 66.37 0.97 36




NCC Satellite Simultaneous Nadir Overpasses (SNOs) Prediction Service
